This is the latest recevied weather packets stored in our database for station/object WX5RP. If no packets are shown the sender has not sent any weather packets the latest 10 day(s).
| Time | Temp. | Humidity | Pressure | Rain* | Wind** | Luminosity | Snow |
|---|---|---|---|---|---|---|---|
| 1787853617 | 23.33° C | 30% | 1020.2 hPa | 0 mm | - | 828 W/m² | - |
| 1787853017 | 22.78° C | 32% | 1020 hPa | 0 mm | - | 814 W/m² | - |
| 1787852417 | 22.22° C | 34% | 1020.1 hPa | 0 mm | - | 766 W/m² | - |
| 1787851816 | 22.22° C | 34% | 1020.4 hPa | 0 mm | - | 703 W/m² | - |
| 1787851217 | 22.22° C | 34% | 1020.4 hPa | 0 mm | - | 682 W/m² | - |
| 1787850617 | 21.11° C | 37% | 1020.5 hPa | 0 mm | - | 703 W/m² | - |
| 1787850017 | 20.56° C | 40% | 1020.2 hPa | 0 mm | - | 646 W/m² | - |
| 1787849416 | 19.44° C | 40% | 1020.5 hPa | 0 mm | - | 570 W/m² | - |
| 1787848816 | 18.89° C | 45% | 1020.6 hPa | 0 mm | - | 234 W/m² | - |
| 1787848216 | 18.89° C | 47% | 1020.6 hPa | 0 mm | - | 300 W/m² | - |
| 1787847617 | 18.33° C | 44% | 1020.3 hPa | 0 mm | - | 347 W/m² | - |
| 1787847016 | 18.33° C | 48% | 1020.1 hPa | 0 mm | - | 293 W/m² | - |
| 1787846416 | 17.78° C | 48% | 1020.4 hPa | 0 mm | - | 300 W/m² | - |
| 1787845816 | 18.33° C | 49% | 1020.9 hPa | 0 mm | - | 482 W/m² | - |
| 1787845216 | 17.78° C | 46% | 1021.1 hPa | 0 mm | - | 484 W/m² | - |
| 1787844619 | 17.22° C | 49% | 1021.2 hPa | 0 mm | - | 415 W/m² | - |
| 1787844016 | 15.56° C | 54% | 1021.1 hPa | 0 mm | - | 392 W/m² | - |
| 1787843416 | 15° C | 61% | 1020.1 hPa | 0 mm | - | 326 W/m² | - |
| 1787842816 | 15° C | 65% | 1020.1 hPa | 0 mm | - | 298 W/m² | - |
| 1787842217 | 13.89° C | 71% | 1020.5 hPa | 0 mm | - | 218 W/m² | - |
| 1787841616 | 11.67° C | 79% | 1020.9 hPa | 0 mm | - | 209 W/m² | - |
| 1787841016 | 10.56° C | 81% | 1020.5 hPa | 0 mm | - | 198 W/m² | - |
| 1787840416 | 10° C | 82% | 1020.8 hPa | 0 mm | - | 95 W/m² | - |
| 1787839817 | 9.44° C | 83% | 1020.2 hPa | 0 mm | - | 52 W/m² | - |
| 1787839216 | 8.33° C | 82% | 1019.6 hPa | 0 mm | - | 40 W/m² | - |
* Rain latest hour (hover to see other rain measurements)
** Current wind speed in m/s (hover to see current wind gust speed)